Year,Month,Day,Hour,Minute,Value (Times are PST for temperature in C)
2014,03,09,00,00,8.20
2014,03,09,00,01,8.20
2014,03,09,00,02,8.20
2014,03,09,00,03,8.30
2014,03,09,00,04,8.30
2014,03,09,00,05,8.30
2014,03,09,00,06,8.30
2014,03,09,00,07,8.40
2014,03,09,00,08,8.40
2014,03,09,00,09,8.50
2014,03,09,00,10,8.50
2014,03,09,00,11,8.50
2014,03,09,00,12,8.50
2014,03,09,00,13,8.50
2014,03,09,00,14,8.50
2014,03,09,00,15,8.60
2014,03,09,00,16,8.60
2014,03,09,00,17,8.60
2014,03,09,00,18,8.70
2014,03,09,00,19,8.70
2014,03,09,00,20,8.80
2014,03,09,00,21,8.80
2014,03,09,00,22,8.80
2014,03,09,00,23,8.80
2014,03,09,00,24,8.80
2014,03,09,00,25,8.80
2014,03,09,00,26,8.80
2014,03,09,00,27,8.80
2014,03,09,00,28,8.80
2014,03,09,00,29,8.80
2014,03,09,00,30,8.80
2014,03,09,00,31,8.80
2014,03,09,00,32,8.80
2014,03,09,00,33,8.80
2014,03,09,00,34,8.80
2014,03,09,00,35,8.80
2014,03,09,00,36,8.80
2014,03,09,00,37,8.80
2014,03,09,00,38,8.80
2014,03,09,00,39,8.80
2014,03,09,00,40,8.80
2014,03,09,00,41,8.80
2014,03,09,00,42,8.80
2014,03,09,00,43,8.80
2014,03,09,00,44,8.80
2014,03,09,00,45,8.70
2014,03,09,00,46,8.70
2014,03,09,00,47,8.70
2014,03,09,00,48,8.60
2014,03,09,00,49,8.60
2014,03,09,00,50,8.50
2014,03,09,00,51,8.50
2014,03,09,00,52,8.40
2014,03,09,00,53,8.40
2014,03,09,00,54,8.40
2014,03,09,00,55,8.40
2014,03,09,00,56,8.40
2014,03,09,00,57,8.40
2014,03,09,00,58,8.40
2014,03,09,00,59,8.40
2014,03,09,01,00,8.40
2014,03,09,01,01,8.30
2014,03,09,01,02,8.30
2014,03,09,01,03,8.30
2014,03,09,01,04,8.30
2014,03,09,01,05,8.30
2014,03,09,01,06,8.30
2014,03,09,01,07,8.30
2014,03,09,01,08,8.30
2014,03,09,01,09,8.30
2014,03,09,01,10,8.20
2014,03,09,01,11,8.20
2014,03,09,01,12,8.20
2014,03,09,01,13,8.20
2014,03,09,01,14,8.20
2014,03,09,01,15,8.20
2014,03,09,01,16,8.10
2014,03,09,01,17,8.10
2014,03,09,01,18,8.10
2014,03,09,01,19,8.10
2014,03,09,01,20,8.10
2014,03,09,01,21,8.10
2014,03,09,01,22,8.10
2014,03,09,01,23,8.10
2014,03,09,01,24,8.10
2014,03,09,01,25,8.10
2014,03,09,01,26,8.10
2014,03,09,01,27,8.10
2014,03,09,01,28,8.10
2014,03,09,01,29,8.10
2014,03,09,01,30,8.00
2014,03,09,01,31,8.00
2014,03,09,01,32,8.00
2014,03,09,01,33,8.00
2014,03,09,01,34,8.00
2014,03,09,01,35,8.00
2014,03,09,01,36,8.00
2014,03,09,01,37,8.00
2014,03,09,01,38,8.00
2014,03,09,01,39,8.00
2014,03,09,01,40,8.00
2014,03,09,01,41,8.00
2014,03,09,01,42,8.00
2014,03,09,01,43,8.00
2014,03,09,01,44,8.00
2014,03,09,01,45,8.10
2014,03,09,01,46,8.10
2014,03,09,01,47,8.10
2014,03,09,01,48,8.10
2014,03,09,01,49,8.10
2014,03,09,01,50,8.10
2014,03,09,01,51,8.10
2014,03,09,01,52,8.10
2014,03,09,01,53,8.10
2014,03,09,01,54,8.10
2014,03,09,01,55,8.00
2014,03,09,01,56,8.00
2014,03,09,01,57,8.00
2014,03,09,01,58,8.00
2014,03,09,01,59,8.00
2014,03,09,03,00,7.90
2014,03,09,03,01,7.90
2014,03,09,03,02,7.90
2014,03,09,03,03,7.90
2014,03,09,03,04,7.90
2014,03,09,03,05,7.90
2014,03,09,03,06,8.00
2014,03,09,03,07,8.00
2014,03,09,03,08,8.00
2014,03,09,03,09,8.00
2014,03,09,03,10,8.00
2014,03,09,03,11,8.00
2014,03,09,03,12,7.90
2014,03,09,03,13,7.90
2014,03,09,03,14,7.90
2014,03,09,03,15,7.90
2014,03,09,03,16,7.90
2014,03,09,03,17,7.90
2014,03,09,03,18,7.90
2014,03,09,03,19,7.90
2014,03,09,03,20,7.90
2014,03,09,03,21,7.90
2014,03,09,03,22,7.90
2014,03,09,03,23,7.90
2014,03,09,03,24,7.90
2014,03,09,03,25,7.90
2014,03,09,03,26,7.90
2014,03,09,03,27,7.90
2014,03,09,03,28,7.90
2014,03,09,03,29,7.90
2014,03,09,03,30,7.90
2014,03,09,03,31,7.90
2014,03,09,03,32,7.90
2014,03,09,03,33,7.90
2014,03,09,03,34,7.90
2014,03,09,03,35,7.90
2014,03,09,03,36,7.90
2014,03,09,03,37,7.90
2014,03,09,03,38,7.90
2014,03,09,03,39,7.90
2014,03,09,03,40,7.90
2014,03,09,03,41,7.80
2014,03,09,03,42,7.80
2014,03,09,03,43,7.80
2014,03,09,03,44,7.80
2014,03,09,03,45,7.80
2014,03,09,03,46,7.80
2014,03,09,03,47,7.80
2014,03,09,03,48,7.80
2014,03,09,03,49,7.80
2014,03,09,03,50,7.80
2014,03,09,03,51,7.80
2014,03,09,03,52,7.80
2014,03,09,03,53,7.80
2014,03,09,03,54,7.80
2014,03,09,03,55,7.80
2014,03,09,03,56,7.80
2014,03,09,03,57,7.80
2014,03,09,03,58,7.80
2014,03,09,03,59,7.80
2014,03,09,04,00,7.80
2014,03,09,04,01,7.80
2014,03,09,04,02,7.80
2014,03,09,04,03,7.80
2014,03,09,04,04,7.80
2014,03,09,04,05,7.80
2014,03,09,04,06,7.80
2014,03,09,04,07,7.80
2014,03,09,04,08,7.70
2014,03,09,04,09,7.70
2014,03,09,04,10,7.70
2014,03,09,04,11,7.70
2014,03,09,04,12,7.60
2014,03,09,04,13,7.60
2014,03,09,04,14,7.60
2014,03,09,04,15,7.60
2014,03,09,04,16,7.60
2014,03,09,04,17,7.60
2014,03,09,04,18,7.60
2014,03,09,04,19,7.50
2014,03,09,04,20,7.60
2014,03,09,04,21,7.50
2014,03,09,04,22,7.50
2014,03,09,04,23,7.50
2014,03,09,04,24,7.50
2014,03,09,04,25,7.50
2014,03,09,04,26,7.50
2014,03,09,04,27,7.50
2014,03,09,04,28,7.50
2014,03,09,04,29,7.40
2014,03,09,04,30,7.40
2014,03,09,04,31,7.40
2014,03,09,04,32,7.40
2014,03,09,04,33,7.40
2014,03,09,04,34,7.40
2014,03,09,04,35,7.50
2014,03,09,04,36,7.40
2014,03,09,04,37,7.40
2014,03,09,04,38,7.40
2014,03,09,04,39,7.40
2014,03,09,04,40,7.40
2014,03,09,04,41,7.40
2014,03,09,04,42,7.30
2014,03,09,04,43,7.30
2014,03,09,04,44,7.30
2014,03,09,04,45,7.30
2014,03,09,04,46,7.40
2014,03,09,04,47,7.40
2014,03,09,04,48,7.40
2014,03,09,04,49,7.30
2014,03,09,04,50,7.30
2014,03,09,04,51,7.30
2014,03,09,04,52,7.30
2014,03,09,04,53,7.30
2014,03,09,04,54,7.30
2014,03,09,04,55,7.30
2014,03,09,04,56,7.30
2014,03,09,04,57,7.20
2014,03,09,04,58,7.20
2014,03,09,04,59,7.20
2014,03,09,05,00,7.20
2014,03,09,05,01,7.20
2014,03,09,05,02,7.20
2014,03,09,05,03,7.20
2014,03,09,05,04,7.30
2014,03,09,05,05,7.30
2014,03,09,05,06,7.30
2014,03,09,05,07,7.30
2014,03,09,05,08,7.30
2014,03,09,05,09,7.30
2014,03,09,05,10,7.30
2014,03,09,05,11,7.30
2014,03,09,05,12,7.30
2014,03,09,05,13,7.30
2014,03,09,05,14,7.30
2014,03,09,05,15,7.30
2014,03,09,05,16,7.30
2014,03,09,05,17,7.30
2014,03,09,05,18,7.30
2014,03,09,05,19,7.30
2014,03,09,05,20,7.30
2014,03,09,05,21,7.30
2014,03,09,05,22,7.30
2014,03,09,05,23,7.20
2014,03,09,05,24,7.20
2014,03,09,05,25,7.20
2014,03,09,05,26,7.20
2014,03,09,05,27,7.20
2014,03,09,05,28,7.20
2014,03,09,05,29,7.20
2014,03,09,05,30,7.20
2014,03,09,05,31,7.20
2014,03,09,05,32,7.20
2014,03,09,05,33,7.20
2014,03,09,05,34,7.20
2014,03,09,05,35,7.20
2014,03,09,05,36,7.20
2014,03,09,05,37,7.20
2014,03,09,05,38,7.20
2014,03,09,05,39,7.20
2014,03,09,05,40,7.20
2014,03,09,05,41,7.20
2014,03,09,05,42,7.20
2014,03,09,05,43,7.10
2014,03,09,05,44,7.10
2014,03,09,05,45,7.10
2014,03,09,05,46,7.10
2014,03,09,05,47,7.10
2014,03,09,05,48,7.00
2014,03,09,05,49,7.00
2014,03,09,05,50,7.00
2014,03,09,05,51,7.00
2014,03,09,05,52,6.90
2014,03,09,05,53,6.90
2014,03,09,05,54,6.90
2014,03,09,05,55,6.90
2014,03,09,05,56,6.90
2014,03,09,05,57,6.90
2014,03,09,05,58,6.80
2014,03,09,05,59,6.80
2014,03,09,06,00,6.80
2014,03,09,06,01,6.80
2014,03,09,06,02,6.80
2014,03,09,06,03,6.80
2014,03,09,06,04,6.80
2014,03,09,06,05,6.80
2014,03,09,06,06,6.80
2014,03,09,06,07,6.80
2014,03,09,06,08,6.80
2014,03,09,06,09,6.80
2014,03,09,06,10,6.80
2014,03,09,06,11,6.80
2014,03,09,06,12,6.80
2014,03,09,06,13,6.80
2014,03,09,06,14,6.80
2014,03,09,06,15,6.80
2014,03,09,06,16,6.80
2014,03,09,06,17,6.80
2014,03,09,06,18,6.90
2014,03,09,06,19,6.90
2014,03,09,06,20,6.90
2014,03,09,06,21,6.80
2014,03,09,06,22,6.80
2014,03,09,06,23,6.80
2014,03,09,06,24,6.80
2014,03,09,06,25,6.80
2014,03,09,06,26,6.80
2014,03,09,06,27,6.80
2014,03,09,06,28,6.80
2014,03,09,06,29,6.80
2014,03,09,06,30,6.80
2014,03,09,06,31,6.70
2014,03,09,06,32,6.70
2014,03,09,06,33,6.70
2014,03,09,06,34,6.70
2014,03,09,06,35,6.70
2014,03,09,06,36,6.70
2014,03,09,06,37,6.70
2014,03,09,06,38,6.70
2014,03,09,06,39,6.70
2014,03,09,06,40,6.70
2014,03,09,06,41,6.70
2014,03,09,06,42,6.70
2014,03,09,06,43,6.70
2014,03,09,06,44,6.80
2014,03,09,06,45,6.70
2014,03,09,06,46,6.70
2014,03,09,06,47,6.70
2014,03,09,06,48,6.70
2014,03,09,06,49,6.70
2014,03,09,06,50,6.70
2014,03,09,06,51,6.70
2014,03,09,06,52,6.70
2014,03,09,06,53,6.70
2014,03,09,06,54,6.70
2014,03,09,06,55,6.60
2014,03,09,06,56,6.60
2014,03,09,06,57,6.60
2014,03,09,06,58,6.60
2014,03,09,06,59,6.60
2014,03,09,07,00,6.60
2014,03,09,07,01,6.60
2014,03,09,07,02,6.60
2014,03,09,07,03,6.60
2014,03,09,07,04,6.50
2014,03,09,07,05,6.50
2014,03,09,07,06,6.50
2014,03,09,07,07,6.40
2014,03,09,07,08,6.40
2014,03,09,07,09,6.40
2014,03,09,07,10,6.40
2014,03,09,07,11,6.40
2014,03,09,07,12,6.40
2014,03,09,07,13,6.30
2014,03,09,07,14,6.30
2014,03,09,07,15,6.30
2014,03,09,07,16,6.30
2014,03,09,07,17,6.30
2014,03,09,07,18,6.30
2014,03,09,07,19,6.30
2014,03,09,07,20,6.20
2014,03,09,07,21,6.20
2014,03,09,07,22,6.20
2014,03,09,07,23,6.20
2014,03,09,07,24,6.20
2014,03,09,07,25,6.20
2014,03,09,07,26,6.20
2014,03,09,07,27,6.20
2014,03,09,07,28,6.20
2014,03,09,07,29,6.20
2014,03,09,07,30,6.20
2014,03,09,07,31,6.20
2014,03,09,07,32,6.20
2014,03,09,07,33,6.20
2014,03,09,07,34,6.20
2014,03,09,07,35,6.10
2014,03,09,07,36,6.10
2014,03,09,07,37,6.10
2014,03,09,07,38,6.10
2014,03,09,07,39,6.10
2014,03,09,07,40,6.10
2014,03,09,07,41,6.10
2014,03,09,07,42,6.10
2014,03,09,07,43,6.10
2014,03,09,07,44,6.10
2014,03,09,07,45,6.10
2014,03,09,07,46,6.10
2014,03,09,07,47,6.10
2014,03,09,07,48,6.10
2014,03,09,07,49,6.10
2014,03,09,07,50,6.20
2014,03,09,07,51,6.20
2014,03,09,07,52,6.20
2014,03,09,07,53,6.30
2014,03,09,07,54,6.30
2014,03,09,07,55,6.30
2014,03,09,07,56,6.30
2014,03,09,07,57,6.40
2014,03,09,07,58,6.40
2014,03,09,07,59,6.40
2014,03,09,08,00,6.40
2014,03,09,08,01,6.50
2014,03,09,08,02,6.50
2014,03,09,08,03,6.60
2014,03,09,08,04,6.60
2014,03,09,08,05,6.60
2014,03,09,08,06,6.60
2014,03,09,08,07,6.60
2014,03,09,08,08,6.60
2014,03,09,08,09,6.60
2014,03,09,08,10,6.60
2014,03,09,08,11,6.60
2014,03,09,08,12,6.60
2014,03,09,08,13,6.60
2014,03,09,08,14,6.60
2014,03,09,08,15,6.60
2014,03,09,08,16,6.60
2014,03,09,08,17,6.60
2014,03,09,08,18,6.60
2014,03,09,08,19,6.60
2014,03,09,08,20,6.60
2014,03,09,08,21,6.60
2014,03,09,08,22,6.60
2014,03,09,08,23,6.60
2014,03,09,08,24,6.60
2014,03,09,08,25,6.60
2014,03,09,08,26,6.60
2014,03,09,08,27,6.70
2014,03,09,08,28,6.70
2014,03,09,08,29,6.80
2014,03,09,08,30,6.80
2014,03,09,08,31,6.90
2014,03,09,08,32,6.90
2014,03,09,08,33,6.90
2014,03,09,08,34,7.00
2014,03,09,08,35,7.00
2014,03,09,08,36,7.10
2014,03,09,08,37,7.10
2014,03,09,08,38,7.10
2014,03,09,08,39,7.10
2014,03,09,08,40,7.20
2014,03,09,08,41,7.20
2014,03,09,08,42,7.20
2014,03,09,08,43,7.30
2014,03,09,08,44,7.30
2014,03,09,08,45,7.30
2014,03,09,08,46,7.30
2014,03,09,08,47,7.40
2014,03,09,08,48,7.40
2014,03,09,08,49,7.40
2014,03,09,08,50,7.50
2014,03,09,08,51,7.50
2014,03,09,08,52,7.60
2014,03,09,08,53,7.60
2014,03,09,08,54,7.70
2014,03,09,08,55,7.80
2014,03,09,08,56,7.80
2014,03,09,08,57,7.90
2014,03,09,08,58,8.00
2014,03,09,08,59,8.10
2014,03,09,09,00,8.10
2014,03,09,09,01,8.20
2014,03,09,09,02,8.20
2014,03,09,09,03,8.20
2014,03,09,09,04,8.20
2014,03,09,09,05,8.30
2014,03,09,09,06,8.20
2014,03,09,09,07,8.20
2014,03,09,09,08,8.30
2014,03,09,09,09,8.20
2014,03,09,09,10,8.20
2014,03,09,09,11,8.20
2014,03,09,09,12,8.20
2014,03,09,09,13,8.20
2014,03,09,09,14,8.20
2014,03,09,09,15,8.20
2014,03,09,09,16,8.20
2014,03,09,09,17,8.20
2014,03,09,09,18,8.20
2014,03,09,09,19,8.30
2014,03,09,09,20,8.30
2014,03,09,09,21,8.30
2014,03,09,09,22,8.30
2014,03,09,09,23,8.40
2014,03,09,09,24,8.40
2014,03,09,09,25,8.40
2014,03,09,09,26,8.50
2014,03,09,09,27,8.50
2014,03,09,09,28,8.60
2014,03,09,09,29,8.60
2014,03,09,09,30,8.60
2014,03,09,09,31,8.60
2014,03,09,09,32,8.60
2014,03,09,09,33,8.60
2014,03,09,09,34,8.60
2014,03,09,09,35,8.60
2014,03,09,09,36,8.60
2014,03,09,09,37,8.60
2014,03,09,09,38,8.70
2014,03,09,09,39,8.70
2014,03,09,09,40,8.70
2014,03,09,09,41,8.70
2014,03,09,09,42,8.70
2014,03,09,09,43,8.80
2014,03,09,09,44,8.80
2014,03,09,09,45,8.80
2014,03,09,09,46,8.80
2014,03,09,09,47,8.80
2014,03,09,09,48,8.80
2014,03,09,09,49,8.80
2014,03,09,09,50,8.80
2014,03,09,09,51,8.80
2014,03,09,09,52,8.80
2014,03,09,09,53,8.80
2014,03,09,09,54,8.80
2014,03,09,09,55,8.90
2014,03,09,09,56,8.90
2014,03,09,09,57,8.90
2014,03,09,09,58,8.90
2014,03,09,09,59,9.00
2014,03,09,10,00,9.10
2014,03,09,10,01,9.10
2014,03,09,10,02,9.10
2014,03,09,10,03,9.10
2014,03,09,10,04,9.20
2014,03,09,10,05,9.20
2014,03,09,10,06,9.30
2014,03,09,10,07,9.30
2014,03,09,10,08,9.30
2014,03,09,10,09,9.30
2014,03,09,10,10,9.30
2014,03,09,10,11,9.30
2014,03,09,10,12,9.30
2014,03,09,10,13,9.40
2014,03,09,10,14,9.30
2014,03,09,10,15,9.30
2014,03,09,10,16,9.30
2014,03,09,10,17,9.30
2014,03,09,10,18,9.40
2014,03,09,10,19,9.40
2014,03,09,10,20,9.40
2014,03,09,10,21,9.50
2014,03,09,10,22,9.50
2014,03,09,10,23,9.60
2014,03,09,10,24,9.60
2014,03,09,10,25,9.60
2014,03,09,10,26,9.60
2014,03,09,10,27,9.70
2014,03,09,10,28,9.70
2014,03,09,10,29,9.70
2014,03,09,10,30,9.80
2014,03,09,10,31,9.80
2014,03,09,10,32,9.80
2014,03,09,10,33,9.80
2014,03,09,10,34,9.80
2014,03,09,10,35,9.80
2014,03,09,10,36,9.80
2014,03,09,10,37,9.80
2014,03,09,10,38,9.80
2014,03,09,10,39,9.80
2014,03,09,10,40,9.80
2014,03,09,10,41,9.80
2014,03,09,10,42,9.90
2014,03,09,10,43,9.90
2014,03,09,10,44,9.90
2014,03,09,10,45,9.90
2014,03,09,10,46,9.90
2014,03,09,10,47,9.90
2014,03,09,10,48,9.90
2014,03,09,10,49,9.90
2014,03,09,10,50,9.90
2014,03,09,10,51,9.90
2014,03,09,10,52,9.90
2014,03,09,10,53,9.90
2014,03,09,10,54,10.00
2014,03,09,10,55,10.00
2014,03,09,10,56,10.00
2014,03,09,10,57,10.00
2014,03,09,10,58,10.00
2014,03,09,10,59,10.00
2014,03,09,11,00,10.10
2014,03,09,11,01,10.10
2014,03,09,11,02,10.10
2014,03,09,11,03,10.10
2014,03,09,11,04,10.10
2014,03,09,11,05,10.10
2014,03,09,11,06,10.20
2014,03,09,11,07,10.20
2014,03,09,11,08,10.20
2014,03,09,11,09,10.20
2014,03,09,11,10,10.20
2014,03,09,11,11,10.20
2014,03,09,11,12,10.30
2014,03,09,11,13,10.30
2014,03,09,11,14,10.30
2014,03,09,11,15,10.30
2014,03,09,11,16,10.30
2014,03,09,11,17,10.40
2014,03,09,11,18,10.40
2014,03,09,11,19,10.40
2014,03,09,11,20,10.50
2014,03,09,11,21,10.50
2014,03,09,11,22,10.60
2014,03,09,11,23,10.60
2014,03,09,11,24,10.60
2014,03,09,11,25,10.70
2014,03,09,11,26,10.80
2014,03,09,11,27,10.80
2014,03,09,11,28,10.80
2014,03,09,11,29,10.90
2014,03,09,11,30,10.90
2014,03,09,11,31,11.00
2014,03,09,11,32,11.00
2014,03,09,11,33,11.10
2014,03,09,11,34,11.10
2014,03,09,11,35,11.10
2014,03,09,11,36,11.10
2014,03,09,11,37,11.10
2014,03,09,11,38,11.10
2014,03,09,11,39,11.20
2014,03,09,11,40,11.20
2014,03,09,11,41,11.20
2014,03,09,11,42,11.20
2014,03,09,11,43,11.20
2014,03,09,11,44,11.20
2014,03,09,11,45,11.20
2014,03,09,11,46,11.20
2014,03,09,11,47,11.20
2014,03,09,11,48,11.20
2014,03,09,11,49,11.20
2014,03,09,11,50,11.20
2014,03,09,11,51,11.20
2014,03,09,11,52,11.20
2014,03,09,11,53,11.30
2014,03,09,11,54,11.30
2014,03,09,11,55,11.30
2014,03,09,11,56,11.30
2014,03,09,11,57,11.30
2014,03,09,11,58,11.30
2014,03,09,11,59,11.40
2014,03,09,12,00,11.40
2014,03,09,12,01,11.40
2014,03,09,12,02,11.50
2014,03,09,12,03,11.50
2014,03,09,12,04,11.60
2014,03,09,12,05,11.60
2014,03,09,12,06,11.70
2014,03,09,12,07,11.70
2014,03,09,12,08,11.80
2014,03,09,12,09,11.80
2014,03,09,12,10,11.80
2014,03,09,12,11,11.90
2014,03,09,12,12,11.90
2014,03,09,12,13,11.90
2014,03,09,12,14,12.00
2014,03,09,12,15,12.00
2014,03,09,12,16,12.00
2014,03,09,12,17,12.10
2014,03,09,12,18,12.10
2014,03,09,12,19,12.20
2014,03,09,12,20,12.20
2014,03,09,12,21,12.20
2014,03,09,12,22,12.20
2014,03,09,12,23,12.20
2014,03,09,12,24,12.20
2014,03,09,12,25,12.20
2014,03,09,12,26,12.20
2014,03,09,12,27,12.20
2014,03,09,12,28,12.20
2014,03,09,12,29,12.30
2014,03,09,12,30,12.30
2014,03,09,12,31,12.30
2014,03,09,12,32,12.30
2014,03,09,12,33,12.30
2014,03,09,12,34,12.30
2014,03,09,12,35,12.30
2014,03,09,12,36,12.30
2014,03,09,12,37,12.30
2014,03,09,12,38,12.30
2014,03,09,12,39,12.30
2014,03,09,12,40,12.30
2014,03,09,12,41,12.30
2014,03,09,12,42,12.30
2014,03,09,12,43,12.30
2014,03,09,12,44,12.30
2014,03,09,12,45,12.30
2014,03,09,12,46,12.30
2014,03,09,12,47,12.30
2014,03,09,12,48,12.30
2014,03,09,12,49,12.30
2014,03,09,12,50,12.30
2014,03,09,12,51,12.30
2014,03,09,12,52,12.40
2014,03,09,12,53,12.40
2014,03,09,12,54,12.40
2014,03,09,12,55,12.50
2014,03,09,12,56,12.50
2014,03,09,12,57,12.50
2014,03,09,12,58,12.50
2014,03,09,12,59,12.50
2014,03,09,13,00,12.50
2014,03,09,13,01,12.50
2014,03,09,13,02,12.50
2014,03,09,13,03,12.50
2014,03,09,13,04,12.50
2014,03,09,13,05,12.50
2014,03,09,13,06,12.40
2014,03,09,13,07,12.40
2014,03,09,13,08,12.40
2014,03,09,13,09,12.50
2014,03,09,13,10,12.50
2014,03,09,13,11,12.50
2014,03,09,13,12,12.60
2014,03,09,13,13,12.60
2014,03,09,13,14,12.60
2014,03,09,13,15,12.60
2014,03,09,13,16,12.70
2014,03,09,13,17,12.70
2014,03,09,13,18,12.80
2014,03,09,13,19,12.80
2014,03,09,13,20,12.90
2014,03,09,13,21,12.90
2014,03,09,13,22,12.80
2014,03,09,13,23,12.80
2014,03,09,13,24,12.70
2014,03,09,13,25,12.60
2014,03,09,13,26,12.60
2014,03,09,13,27,12.50
2014,03,09,13,28,12.50
2014,03,09,13,29,12.50
2014,03,09,13,30,12.50
2014,03,09,13,31,12.40
2014,03,09,13,32,12.40
2014,03,09,13,33,12.40
2014,03,09,13,34,12.30
2014,03,09,13,35,12.30
2014,03,09,13,36,12.30
2014,03,09,13,37,12.30
2014,03,09,13,38,12.20
2014,03,09,13,39,12.20
2014,03,09,13,40,12.20
2014,03,09,13,41,12.10
2014,03,09,13,42,12.10
2014,03,09,13,43,12.10
2014,03,09,13,44,12.10
2014,03,09,13,45,12.10
2014,03,09,13,46,12.10
2014,03,09,13,47,12.10
2014,03,09,13,48,12.10
2014,03,09,13,49,12.10
2014,03,09,13,50,12.20
2014,03,09,13,51,12.20
2014,03,09,13,52,12.20
2014,03,09,13,53,12.30
2014,03,09,13,54,12.30
2014,03,09,13,55,12.30
2014,03,09,13,56,12.30
2014,03,09,13,57,12.30
2014,03,09,13,58,12.30
2014,03,09,13,59,12.30
2014,03,09,14,00,12.30
2014,03,09,14,01,12.40
2014,03,09,14,02,12.40
2014,03,09,14,03,12.50
2014,03,09,14,04,12.50
2014,03,09,14,05,12.60
2014,03,09,14,06,12.60
2014,03,09,14,07,12.70
2014,03,09,14,08,12.70
2014,03,09,14,09,12.70
2014,03,09,14,10,12.70
2014,03,09,14,11,12.70
2014,03,09,14,12,12.60
2014,03,09,14,13,12.60
2014,03,09,14,14,12.60
2014,03,09,14,15,12.60
2014,03,09,14,16,12.50
2014,03,09,14,17,12.50
2014,03,09,14,18,12.40
2014,03,09,14,19,12.40
2014,03,09,14,20,12.40
2014,03,09,14,21,12.40
2014,03,09,14,22,12.40
2014,03,09,14,23,12.30
2014,03,09,14,24,12.30
2014,03,09,14,25,12.30
2014,03,09,14,26,12.30
2014,03,09,14,27,12.30
2014,03,09,14,28,12.30
2014,03,09,14,29,12.30
2014,03,09,14,30,12.30
2014,03,09,14,31,12.40
2014,03,09,14,32,12.40
2014,03,09,14,33,12.40
2014,03,09,14,34,12.30
2014,03,09,14,35,12.40
2014,03,09,14,36,12.40
2014,03,09,14,37,12.40
2014,03,09,14,38,12.40
2014,03,09,14,39,12.40
2014,03,09,14,40,12.40
2014,03,09,14,41,12.40
2014,03,09,14,42,12.40
2014,03,09,14,43,12.40
2014,03,09,14,44,12.30
2014,03,09,14,45,12.30
2014,03,09,14,46,12.20
2014,03,09,14,47,12.20
2014,03,09,14,48,12.20
2014,03,09,14,49,12.20
2014,03,09,14,50,12.20
2014,03,09,14,51,12.20
2014,03,09,14,52,12.30
2014,03,09,14,53,12.30
2014,03,09,14,54,12.30
2014,03,09,14,55,12.30
2014,03,09,14,56,12.20
2014,03,09,14,57,12.20
2014,03,09,14,58,12.20
2014,03,09,14,59,12.20
2014,03,09,15,00,12.30
2014,03,09,15,01,12.30
2014,03,09,15,02,12.30
2014,03,09,15,03,12.30
2014,03,09,15,04,12.20
2014,03,09,15,05,12.20
2014,03,09,15,06,12.20
2014,03,09,15,07,12.20
2014,03,09,15,08,12.20
2014,03,09,15,09,12.20
2014,03,09,15,10,12.20
2014,03,09,15,11,12.20
2014,03,09,15,12,12.20
2014,03,09,15,13,12.10
2014,03,09,15,14,12.10
2014,03,09,15,15,12.10
2014,03,09,15,16,12.10
2014,03,09,15,17,12.10
2014,03,09,15,18,12.10
2014,03,09,15,19,12.20
2014,03,09,15,20,12.20
2014,03,09,15,21,12.20
2014,03,09,15,22,12.30
2014,03,09,15,23,12.30
2014,03,09,15,24,12.40
2014,03,09,15,25,12.40
2014,03,09,15,26,12.40
2014,03,09,15,27,12.40
2014,03,09,15,28,12.40
2014,03,09,15,29,12.40
2014,03,09,15,30,12.40
2014,03,09,15,31,12.50
2014,03,09,15,32,12.50
2014,03,09,15,33,12.60
2014,03,09,15,34,12.60
2014,03,09,15,35,12.70
2014,03,09,15,36,12.70
2014,03,09,15,37,12.70
2014,03,09,15,38,12.70
2014,03,09,15,39,12.60
2014,03,09,15,40,12.60
2014,03,09,15,41,12.60
2014,03,09,15,42,12.50
2014,03,09,15,43,12.50
2014,03,09,15,44,12.50
2014,03,09,15,45,12.50
2014,03,09,15,46,12.50
2014,03,09,15,47,12.50
2014,03,09,15,48,12.50
2014,03,09,15,49,12.50
2014,03,09,15,50,12.50
2014,03,09,15,51,12.50
2014,03,09,15,52,12.50
2014,03,09,15,53,12.40
2014,03,09,15,54,12.40
2014,03,09,15,55,12.30
2014,03,09,15,56,12.30
2014,03,09,15,57,12.30
2014,03,09,15,58,12.20
2014,03,09,15,59,12.20
2014,03,09,16,00,12.10
2014,03,09,16,01,12.10
2014,03,09,16,02,12.10
2014,03,09,16,03,12.20
2014,03,09,16,04,12.20
2014,03,09,16,05,12.30
2014,03,09,16,06,12.30
2014,03,09,16,07,12.30
2014,03,09,16,08,12.30
2014,03,09,16,09,12.30
2014,03,09,16,10,12.30
2014,03,09,16,11,12.10
2014,03,09,16,12,11.90
2014,03,09,16,13,11.80
2014,03,09,16,14,11.70
2014,03,09,16,15,11.60
2014,03,09,16,16,11.50
2014,03,09,16,17,11.40
2014,03,09,16,18,11.30
2014,03,09,16,19,11.30
2014,03,09,16,20,11.30
2014,03,09,16,21,11.20
2014,03,09,16,22,11.20
2014,03,09,16,23,11.20
2014,03,09,16,24,11.30
2014,03,09,16,25,11.30
2014,03,09,16,26,11.30
2014,03,09,16,27,11.30
2014,03,09,16,28,11.40
2014,03,09,16,29,11.40
2014,03,09,16,30,11.50
2014,03,09,16,31,11.50
2014,03,09,16,32,11.60
2014,03,09,16,33,11.60
2014,03,09,16,34,11.60
2014,03,09,16,35,11.60
2014,03,09,16,36,11.50
2014,03,09,16,37,11.40
2014,03,09,16,38,11.20
2014,03,09,16,39,11.10
2014,03,09,16,40,10.90
2014,03,09,16,41,10.80
2014,03,09,16,42,10.70
2014,03,09,16,43,10.50
2014,03,09,16,44,10.40
2014,03,09,16,45,10.30
2014,03,09,16,46,10.20
2014,03,09,16,47,10.20
2014,03,09,16,48,10.10
2014,03,09,16,49,10.10
2014,03,09,16,50,10.10
2014,03,09,16,51,10.10
2014,03,09,16,52,10.20
2014,03,09,16,53,10.20
2014,03,09,16,54,10.20
2014,03,09,16,55,10.20
2014,03,09,16,56,10.30
2014,03,09,16,57,10.30
2014,03,09,16,58,10.30
2014,03,09,16,59,10.40
2014,03,09,17,00,10.40
2014,03,09,17,01,10.40
2014,03,09,17,02,10.50
2014,03,09,17,03,10.50
2014,03,09,17,04,10.50
2014,03,09,17,05,10.50
2014,03,09,17,06,10.60
2014,03,09,17,07,10.60
2014,03,09,17,08,10.60
2014,03,09,17,09,10.60
2014,03,09,17,10,10.70
2014,03,09,17,11,10.70
2014,03,09,17,12,10.70
2014,03,09,17,13,10.70
2014,03,09,17,14,10.80
2014,03,09,17,15,10.80
2014,03,09,17,16,10.80
2014,03,09,17,17,10.80
2014,03,09,17,18,10.80
2014,03,09,17,19,10.90
2014,03,09,17,20,10.90
2014,03,09,17,21,10.90
2014,03,09,17,22,10.90
2014,03,09,17,23,11.00
2014,03,09,17,24,11.00
2014,03,09,17,25,11.00
2014,03,09,17,26,11.10
2014,03,09,17,27,11.10
2014,03,09,17,28,11.10
2014,03,09,17,29,11.10
2014,03,09,17,30,11.10
2014,03,09,17,31,11.10
2014,03,09,17,32,11.10
2014,03,09,17,33,11.10
2014,03,09,17,34,11.10
2014,03,09,17,35,11.10
2014,03,09,17,36,11.10
2014,03,09,17,37,11.10
2014,03,09,17,38,11.10
2014,03,09,17,39,11.10
2014,03,09,17,40,11.10
2014,03,09,17,41,11.10
2014,03,09,17,42,11.10
2014,03,09,17,43,11.00
2014,03,09,17,44,11.00
2014,03,09,17,45,11.00
2014,03,09,17,46,11.00
2014,03,09,17,47,10.90
2014,03,09,17,48,10.90
2014,03,09,17,49,10.90
2014,03,09,17,50,10.90
2014,03,09,17,51,10.90
2014,03,09,17,52,10.90
2014,03,09,17,53,10.80
2014,03,09,17,54,10.80
2014,03,09,17,55,10.80
2014,03,09,17,56,10.80
2014,03,09,17,57,10.80
2014,03,09,17,58,10.70
2014,03,09,17,59,10.70
2014,03,09,18,00,10.60
2014,03,09,18,01,10.50
2014,03,09,18,02,10.40
2014,03,09,18,03,10.30
2014,03,09,18,04,10.30
2014,03,09,18,05,10.20
2014,03,09,18,06,10.10
2014,03,09,18,07,10.10
2014,03,09,18,08,10.00
2014,03,09,18,09,9.90
2014,03,09,18,10,9.80
2014,03,09,18,11,9.80
2014,03,09,18,12,9.80
2014,03,09,18,13,9.80
2014,03,09,18,14,9.70
2014,03,09,18,15,9.70
2014,03,09,18,16,9.70
2014,03,09,18,17,9.70
2014,03,09,18,18,9.70
2014,03,09,18,19,9.70
2014,03,09,18,20,9.70
2014,03,09,18,21,9.70
2014,03,09,18,22,9.60
2014,03,09,18,23,9.60
2014,03,09,18,24,9.60
2014,03,09,18,25,9.60
2014,03,09,18,26,9.60
2014,03,09,18,27,9.60
2014,03,09,18,28,9.60
2014,03,09,18,29,9.50
2014,03,09,18,30,9.50
2014,03,09,18,31,9.50
2014,03,09,18,32,9.40
2014,03,09,18,33,9.40
2014,03,09,18,34,9.40
2014,03,09,18,35,9.40
2014,03,09,18,36,9.40
2014,03,09,18,37,9.40
2014,03,09,18,38,9.40
2014,03,09,18,39,9.40
2014,03,09,18,40,9.40
2014,03,09,18,41,9.40
2014,03,09,18,42,9.30
2014,03,09,18,43,9.30
2014,03,09,18,44,9.30
2014,03,09,18,45,9.30
2014,03,09,18,46,9.30